This is the latest recevied weather packets stored in our database for station/object EA1CZ-10. If no packets are shown the sender has not sent any weather packets the latest 10 day(s).
| Time | Temp. | Humidity | Pressure | Rain* | Wind** | Luminosity | Snow |
|---|---|---|---|---|---|---|---|
| 1788336600 | 18.33° C | 65% | 1038.6 hPa | - | - | - | - |
| 1788334799 | 17.22° C | 65% | 1038.4 hPa | - | - | - | - |
| 1788332999 | 16.11° C | 66% | 1037.9 hPa | - | - | - | - |
| 1788331199 | 15.56° C | 67% | 1037.7 hPa | - | - | - | - |
| 1788329399 | 15.56° C | 68% | 1037.6 hPa | - | - | - | - |
| 1788327599 | 13.89° C | 68% | 1037.5 hPa | - | - | - | - |
| 1788325799 | 14.44° C | 68% | 1037.4 hPa | - | - | - | - |
| 1788323999 | 14.44° C | 68% | 1037.4 hPa | - | - | - | - |
| 1788322199 | 14.44° C | 68% | 1037.4 hPa | - | - | - | - |
| 1788320399 | 14.44° C | 68% | 1037.5 hPa | - | - | - | - |
| 1788318599 | 15.56° C | 67% | 1037.5 hPa | - | - | - | - |
| 1788316798 | 15.56° C | 68% | 1037.5 hPa | - | - | - | - |
| 1788314998 | 16.11° C | 68% | 1037.6 hPa | - | - | - | - |
| 1788313198 | 15° C | 69% | 1037.5 hPa | - | - | - | - |
| 1788311398 | 14.44° C | 69% | 1037.7 hPa | - | - | - | - |
| 1788309598 | 14.44° C | 69% | 1037.8 hPa | - | - | - | - |
| 1788307798 | 16.11° C | 68% | 1037.9 hPa | - | - | - | - |
| 1788305998 | 15.56° C | 69% | 1037.8 hPa | - | - | - | - |
| 1788304198 | 13.33° C | 70% | 1038 hPa | - | - | - | - |
| 1788302398 | 12.22° C | 71% | 1037.9 hPa | - | - | - | - |
| 1788300598 | 15° C | 69% | 1037.9 hPa | - | - | - | - |
| 1788298798 | 12.78° C | 70% | 1038 hPa | - | - | - | - |
| 1788296998 | 13.33° C | 68% | 1037.8 hPa | - | - | - | - |
| 1788295197 | 14.44° C | 67% | 1037.8 hPa | - | - | - | - |
| 1788293397 | 17.78° C | 66% | 1037.7 hPa | - | - | - | - |
* Rain since midnight (hover to see other rain measurements)
** Current wind speed in m/s (hover to see current wind gust speed)